Regional Weather Roundup
Issued by NWS Grand Forks, ND

Home | Current Version | Previous Version | Graphics & Text | Print | Product List | Glossary On
Versions: 1 2 3 4 5 6 7 8 9 10 11 12 13 14 15 16 17 18 19 20 21 22 23 24 25 26 27 28 29 30 31 32 33 34 35 36 37 38 39 40 41 42 43 44 45 46 47 48 49 50
661
ASUS43 KFGF 231010
RWRFGF
PRAIRIE TO PINES  WEATHER ROUNDUP
NATIONAL WEATHER SERVICE EASTERN NORTH DAKOTA/GRAND FORKS ND
500 AM CDT THU MAR 23 2017

 **SATELLITE DATA USED TO AUGMENT SKY COVER AT AUTOMATED STATIONS**
 *****  WEATHER ACROSS EASTERN NORTH DAKOTA  *****

CITY           SKY/WX    TMP DP  RH WIND       PRES   REMARKS
GRAND FORKS    FAIR      33  21  61 S14       29.90F WCI  23
GRAND FRKS AFB FAIR      32  25  74 S15       29.90F WCI  22
DEVILS LAKE    FAIR      30  26  85 S10       29.83F WCI  21
FARGO          FAIR      36  25  64 S23G32    29.92F
WAHPETON ARPT  FAIR      32  25  74 SE18      29.96F WCI  20
$$

 ***** WEATHER ACROSS CENTRAL AND WESTERN NORTH DAKOTA  *****

CITY           SKY/WX    TMP DP  RH WIND       PRES   REMARKS
BISMARCK       FAIR      32  28  85 NE9       29.78F WCI  24
MINOT          FAIR      34  28  79 S3        29.75F
JAMESTOWN      FAIR      28  25  88 S7        29.83F WCI  21
MINOT AFB      FAIR      29  27  92 S7        29.74F WCI  22
GARRISON         N/A     31  28  89 CALM      29.76F
WILLISTON      FAIR      31  29  92 CALM      29.75F
DICKINSON      CLOUDY    34  30  85 W6        29.74S
HETTINGER      LGT RAIN  35  32  88 NW8       29.78R
$$

 *****  OTHER AIRPORT OBSERVATIONS IN OUR AREA  *****

CITY           SKY/WX    TMP DP  RH WIND       PRES   REMARKS
WALHALLA       NOT AVBL
GRAFTON AIRPOR FAIR      30  27  86 S12       29.93F WCI  21
VALLEY CITY AR MIX PCPN  28  28 100 SE14G21   29.88F WCI  17
CANDO          NOT AVBL
CAVALIER APRT  NOT AVBL
GWINNER        SUNNY     30  27  86 MISG      29.89F
SHEYENNE NWR     N/A     33  25  73 SE13      29.95S WCI  24
ROLLA          FAIR      23  23 100 S9        29.79F WCI  13
 ***** THE ABOVE OBSERVATIONS ARE NON NWS ARE NOT QUALITY
       CONTROLLED AND MAY MIS-REPORT RAIN FOR SNOW...
$$

  *****  WEATHER ACROSS NORTHERN MINNESOTA  *****

CITY           SKY/WX    TMP DP  RH WIND       PRES   REMARKS
FLAG ISLAND    CLOUDY    30  21  69 SE20      29.96F WCI  18
WARROAD        CLOUDY    34  23  64 S9        29.96F
ROSEAU         MOCLDY    34  25  69 S12       29.95F
HALLOCK        FAIR      32  27  80 S14       29.91F WCI  22
THF RVR FALLS    N/A    N/A N/A N/A MISG        N/A
BAUDETTE       CLOUDY    33  19  56 S14       29.98F WCI  23
WASKISH        CLOUDY    34  19  55 S13G22    30.00F WCI  25
CROOKSTON      FAIR      34  25  69 S16       29.94F WCI  23
GREENBUSH NDAW   N/A     32  25  74 S10         N/A  WCI  24
$$
  *****  WEATHER ACROSS CENTRAL AND WEST MINNESOTA  *****

CITY           SKY/WX    TMP DP  RH WIND       PRES   REMARKS
FOSSTON        FAIR      32  19  59 S12       29.96F WCI  23
BEMIDJI        CLOUDY    33  19  54 S13       30.01F WCI  24
PARK RAPIDS    CLOUDY    35  19  52 S16       30.02F
ELBOW LAKE     FAIR      35  24  63 E25G32    29.99F WCI  23
WADENA         CLOUDY    34  21  60 SE13G18   30.03F WCI  25
DETROIT LAKES  FAIR      34  23  64 SE15      29.99F WCI  24
MOORHEAD       FAIR      36  23  60 S23G31    29.95F
FERGUS FALLS   FAIR      36  23  60 S17       30.03F
MORRIS MN      FAIR      36  25  64 SE18      29.99F
STAPLES        CLOUDY    34  19  55 SE12G17   30.05F
$$
  *****  WEATHER ELSEWHERE ACROSS MINNESOTA  *****

CITY           SKY/WX    TMP DP  RH WIND       PRES   REMARKS
DULUTH         FLURRIES  29  23  78 S12       30.19F WCI  19
INTRNTL FALLS  CLOUDY    32  18  56 S9        30.06F WCI  24
ELY            FLURRIES  28  19  69 S10G20    30.15F WCI  19
CLOQUET        FLURRIES  28  25  86 SE8       30.17F WCI  20
WHEATON        FAIR      34  25  69 SE15      29.98F WCI  24
BRAINERD       CLOUDY    33  19  56 S12G24    30.09F WCI  24
HIBBING        CLOUDY    30  17  58 SE14G21   30.12F WCI  19
ALEXANDRIA     CLOUDY    36  22  56 S20G26    30.04F
SAINT CLOUD    CLOUDY    36  22  56 SE15      30.13F
MINNEAPOLIS    CLOUDY    37  21  52 SE15      30.19F
$$

  *****  WEATHER ACROSS SOUTH DAKOTA  *****

CITY           SKY/WX    TMP DP  RH WIND       PRES   REMARKS
SIOUX FALLS    CLOUDY    41  27  57 SE14      29.99F
BROOKINGS      CLOUDY    38  26  62 S16       29.96F
WATERTOWN      FAIR      37  26  64 S20G28    29.91F
HURON          FAIR      39  29  67 SE20G26   29.88F
SISSETON         N/A     34  28  79 S13       29.92F WCI  25
ABERDEEN       FAIR      37  27  67 S17       29.85F
MITCHELL       FAIR      41  29  62 SE18      29.91F
PIERRE         FAIR      44  30  57 SE13      29.77F
MOBRIDGE       FAIR      41  30  65 SE12      29.74S
RAPID CITY     FAIR      47  37  68 CALM      29.67F
$$

  *****  SOME WEATHER IN NEARBY STATES *****

CITY           SKY/WX    TMP DP  RH WIND       PRES   REMARKS
GLASGOW MT     FAIR      39  33  79 SW3       29.73F
GREAT FALLS MT FAIR      31  23  72 W8        29.79F WCI  23
CHEYENNE WY    FAIR      38  33  82 W10       29.73F
SCOTTSBLUFF NE FAIR      43  34  70 E12       29.71F
OMAHA NE       CLOUDY    46  21  37 SE16      30.05F
DES MOINES IA  CLOUDY    42  16  34 E12       30.17F
DAVENPORT IA   CLOUDY    33  22  63 SE12      30.33F WCI  24
CHICAGO IL     CLOUDY    33  19  56 SE14      30.41F WCI  23
EAU CLAIRE WI  CLOUDY    33  21  61 SE10      30.27F WCI  25
LA CROSSE WI   LGT RAIN  37  22  54 SE12      30.30F
$$

  *****  SOME NATIONAL WEATHER *****

CITY           SKY/WX    TMP DP  RH WIND       PRES   REMARKS
LA GUARDIA NY  FAIR      26   7  44 NW13      30.52R WCI  15
RALEIGH NC     FAIR      33  13  43 NE7       30.50R
ATLANTA GA     MOCLDY    53  31  42 E14       30.32R
NEW ORLEANS LA FAIR      64  63  96 CALM      30.15S
OKLAHOMA CITY  FAIR      60  57  89 S16       29.97F
ALBUQUERQUE NM FAIR      55  16  21 S6        29.87F
SALT LAKE CITY LGT RAIN  45  42  89 W9        29.72S FOG
LOS ANGELES CA FAIR      56  49  77 W8        30.01S
BOISE ID       FAIR      39  34  82 W13       29.92S
SEATTLE WA     CLOUDY    43  39  86 S13       30.08S
$$

*** WEATHER ACROSS MANITOBA...SASKATCHEWAN AND ONTARIO ***
                ***ONTARIO***

CITY           SKY/WX    TMP DP  RH WIND       PRES   REMARKS
GERALDTON      MOCLDY     5   0  78 CALM      30.27F
THUNDER BAY    CLOUDY    27  21  80 NE2       30.27F
SIOUX LOOKOUT  LGT SNOW  27  21  80 S12       30.06F WCI  16
TORONTO        PTCLDY    18  10  73 SW3       30.56R
BIG TROUT LK   CLOUDY    19   5  53 S13       29.99F WCI   7
PICKLE LAKE    NOT AVBL
DRYDEN         CLOUDY    27  23  86 S13G22    30.02F WCI  16
KENORA         FLURRIES  28  19  69 S14G22    29.96F WCI  17
$$
                *** MANITOBA***

CITY           SKY/WX    TMP DP  RH WIND       PRES   REMARKS
BRANDON        PTCLDY    23  21  93 S3        29.77F
DAUPHIN        CLEAR     36  28  75 W6        29.68F
ISLAND LAKE    NOT AVBL
PILOT MOUND      N/A     25  23  93 S12         N/A  WCI  14
THE PAS        FRZ DRZL  27  23  86 S12       29.54F FOG     WCI  16
THOMPSON       FRZ RAIN  23  21  93 E3        29.68F
WINNIPEG       CLOUDY    32  25  74 S20G28    29.87F WCI  20
LYNN LAKE      FLURRIES  18  18 100 NE6       29.66S WCI   9
CHURCHILL      CLOUDY    12   3  67 S8        29.85F WCI   1
GILLAM         MOCLDY    19  18  93 S3        29.81F
$$
                ***SASKATCHEWAN***

CITY           SKY/WX    TMP DP  RH WIND       PRES   REMARKS
ESTEVAN        PTCLDY    34  30  86 SW6       29.72F
KINDERSLEY     MOCLDY    25  25 100 CALM      29.73R
LLOYDMINSTER   FOG       21  21 100 NW7       29.73R VSB 3/8 WCI  13
PRINCE ALBERT  FLURRIES  23  19  86 W9        29.68R WCI  13
REGINA         CLEAR     30  28  93 NW10      29.73R WCI  21
YORKTON        CLEAR     27  25  93 SW7       29.68R WCI  19
N. BATTLEFORD  CLEAR     19 N/A N/A NW3       29.77R
LA RONGE       FLURRIES  19  18  93 W7        29.67R WCI  10
SASKATOON      MOCLDY    27  25  93 W10       29.75R WCI  17
SWIFT CURRENT  CLEAR     30  28  93 NW5       29.71S
$$
NOTE: THESE ARE AUTOMATED STATIONS WITH LIMITED QUALITY CONTROL
      "FAIR" INDICATES FEW OR NO CLOUDS BELOW 12,000 FEET WITH NO
      SIGNIFICANT WEATHER AND/OR OBSTRUCTIONS TO VISIBILITY.
      SKY/WX - SKY CONDITION AND SIGNIFICANT WEATHER.
      TMP - AIR TEMPERATURE.    DP   - DEWPOINT TEMPERATURE.
      RH  - RELATIVE HUMIDITY.  PRES - PRESSURE.
      HX  - HEAT INDEX.         WCI  - WIND CHILL INDEX.
$




USA.gov is the U.S. government's official web portal to all federal, state and local government web resources and services.